Station APXF1 - East Bay, Apalachicola Reserve, FL Image indicating link to RSS feed of recent meteorological observations for station APXF1


Conditions at APXF1 as of
(6:00 am EDT)
1000 GMT on 07/21/2024:
     

Click on the graph icon in the table below to see a time series plot of the last five days of that observation.

5-day plot - Wind Direction Wind Direction (WDIR): E ( 80 deg true )
5-day plot - Wind Speed Wind Speed (WSPD): 1.9 kts
5-day plot - Atmospheric Pressure Atmospheric Pressure (PRES):30.09 in
5-day plot - Pressure Tendency Pressure Tendency (PTDY):-0.03 in ( Falling )
5-day plot - Air Temperature Air Temperature (ATMP): 78.6 °F
5-day plot - Dew Point Dew Point (DEWP): 77.4 °F
5-day plot - Heat Index Heat Index (HEAT): 82.4 °F
5-day plot -  Wind Speed, Wind Gust and Atmospheric Pressure Combined plot of Wind Speed, Gust, and Air Pressure
Previous observations
TIME
(EDT)
5-day plot - Wind Direction
WDIR
 
5-day plot - Wind Speed
WSPD
kts
5-day plot - Wind Gust
GST
kts
5-day plot - Wave Height
WVHT
ft
5-day plot - Dominant Wave Period
DPD
sec
5-day plot - Average Wave Period
APD
sec
5-day plot - Mean Wave Direction
MWD
 
5-day plot - Atmospheric Pressure
PRES
in
5-day plot - Pressure Tendency
PTDY
in
5-day plot - Air Temperature
ATMP
°F
5-day plot - Water Temperature
WTMP
°F
5-day plot - Dew Point
DEWP
°F
5-day plot - Salinity
SAL
psu
5-day plot - Visibility
VIS
nmi
5-day plot - Tide (above MLLW)
TIDE
ft
2024-07-21 05:45 amESE 1.9-----30.09- 77.5- 76.3---
2024-07-21 05:30 am E 1.9-----30.09- 77.2- 75.9---
2024-07-21 05:15 am SE 1.0-----30.09- 77.0- 76.1---
2024-07-21 05:00 am E 1.9-----30.09-0.03 77.4- 76.1---
2024-07-21 04:45 amNNE 5.1-----30.09- 78.8- 77.9---
2024-07-21 04:30 am NE 4.1-----30.09- 79.0- 77.7---
2024-07-21 04:15 amNNE 4.1-----30.09- 78.8- 77.5---
2024-07-21 04:00 am SE 1.0-----30.12+0.00 77.5- 76.3---
2024-07-21 03:45 amESE 1.0-----30.09- 77.4- 76.1---
2024-07-21 03:30 amESE 1.0-----30.09- 77.2- 75.9---
2024-07-21 03:15 am E 1.0-----30.09- 77.7- 76.5---
2024-07-21 03:00 amESE 1.9-----30.12+0.00 77.9- 76.5---
2024-07-21 02:45 amESE 1.0-----30.12- 77.9- 76.5---
2024-07-21 02:30 amESE 1.0-----30.12- 78.1- 76.8---
2024-07-21 02:15 amESE 1.9-----30.09- 77.5- 76.1---
2024-07-21 02:00 am- 0.0-----30.12+0.00 78.3- 76.8---
2024-07-21 01:45 am E 1.0-----30.12- 79.0- 77.5---
2024-07-21 01:30 am SE 1.9-----30.12- 78.4- 77.0---
2024-07-21 01:15 am SE 1.9-----30.12- 78.3- 76.8---
2024-07-21 01:00 amENE 2.9-----30.12+0.00 79.3- 77.9---
2024-07-21 12:45 amESE 1.9-----30.12- 79.0- 77.2---
2024-07-21 12:30 am SE 1.0-----30.12- 78.3- 76.5---
2024-07-21 12:15 amESE 1.0-----30.12- 77.9- 76.1---
2024-07-21 12:00 am E 1.0-----30.12+0.00 78.1- 76.6---
2024-07-20 11:45 pm E 2.9-----30.12- 78.6- 76.8---
2024-07-20 11:30 pmESE 1.9-----30.12- 77.9- 76.1---
2024-07-20 11:15 pmENE 1.9-----30.12- 78.1- 76.6---
2024-07-20 11:00 pm E 2.9-----30.12+0.00 77.9- 76.1---
2024-07-20 10:45 pmESE 1.9-----30.12- 77.5- 75.7---
2024-07-20 10:30 pm E 1.9-----30.12- 77.5- 76.1---
2024-07-20 10:15 pm E 1.9-----30.12- 77.9- 76.5---
2024-07-20 10:00 pmSSE 1.0-----30.12+0.03 79.9- 77.0---
2024-07-20 09:45 pm SE 1.9-----30.12- 78.6- 76.1---
2024-07-20 09:30 pm E 2.9-----30.12- 79.2- 77.0---
2024-07-20 09:15 pm E 2.9-----30.12- 79.0- 76.8---
2024-07-20 09:00 pm N 2.9-----30.12+0.03 79.3- 75.9---
2024-07-20 08:45 pmSSW 1.9-----30.09- 79.2- 75.7---
2024-07-20 08:30 pm NW 1.0-----30.09- 79.3- 76.3---
2024-07-20 08:15 pm W 1.9-----30.12- 79.9- 76.8---
2024-07-20 08:00 pmSSW 2.9-----30.12+0.00 82.0- 79.2---
2024-07-20 07:45 pmSSW 2.9-----30.12- 82.4- 79.0---
2024-07-20 07:30 pmWNW 8.9-----30.12- 82.0- 77.5---
2024-07-20 07:15 pmNNE 12.0-----30.12- 79.3- 75.9---
2024-07-20 07:00 pm S 5.1-----30.09-0.03 85.5- 79.2---
2024-07-20 06:45 pm S 6.0-----30.09- 84.6- 79.3---
2024-07-20 06:30 pmSSW 4.1-----30.12- 82.9- 79.2---
2024-07-20 06:15 pmSSE 1.9-----30.12- 82.2- 79.2---
2024-07-20 06:00 pmSSW 4.1-----30.09-0.03 87.4- 78.4---
2024-07-20 05:45 pm SW 2.9-----30.09- 87.4- 78.8---
2024-07-20 05:30 pm S 2.9-----30.09- 87.1- 78.4---
2024-07-20 05:15 pm S 4.1-----30.12- 86.5- 78.6---
2024-07-20 05:00 pmSSW 5.1-----30.12-0.03 86.9- 78.3---
2024-07-20 04:45 pmWSW 7.0-----30.12- 87.4- 77.9---
2024-07-20 04:30 pm SW 5.1-----30.12- 87.4- 77.9---
2024-07-20 04:15 pmSSW 4.1-----30.12- 87.6- 78.1---
2024-07-20 04:00 pm S 4.1-----30.12+0.00 85.3- 76.6---
2024-07-20 03:45 pmSSW 5.1-----30.12- 87.1- 75.6---
2024-07-20 03:30 pm S 5.1-----30.12- 86.9- 77.5---
2024-07-20 03:15 pm SW 6.0-----30.12- 86.5- 77.9---
2024-07-20 03:00 pmSSW 5.1-----30.12+0.00 88.7- 78.4---
2024-07-20 02:45 pm S 6.0-----30.12- 88.9- 79.0---
2024-07-20 02:30 pm S 7.0-----30.12- 86.9- 77.0---
2024-07-20 02:15 pm S 7.0-----30.09- 85.5- 76.8---
2024-07-20 02:00 pm SW 5.1-----30.15+0.00 87.8- 77.9---
2024-07-20 01:45 pmSSW 5.1-----30.12- 88.2- 78.3---
2024-07-20 01:30 pmSSW 5.1-----30.12- 88.0- 78.4---
2024-07-20 01:15 pm S 6.0-----30.12- 88.5- 79.0---
2024-07-20 01:00 pmSSW 5.1-----30.12+0.00 88.3- 76.3---
2024-07-20 12:45 pmSSW 6.0-----30.12- 88.5- 77.0---
2024-07-20 12:30 pm SW 2.9-----30.15- 88.9- 77.4---
2024-07-20 12:15 pmWSW 6.0-----30.15- 88.2- 77.4---
2024-07-20 12:00 pm W 5.1-----30.12+0.03 86.5- 77.5---
2024-07-20 11:45 amWSW 5.1-----30.12- 86.5- 77.9---
2024-07-20 11:30 am S 4.1-----30.12- 88.2- 77.0---
2024-07-20 11:15 am S 5.1-----30.12- 88.3- 76.8---
2024-07-20 11:00 amSSW 1.9-----30.15+0.03 83.8- 77.5---
2024-07-20 10:45 am S 1.9-----30.12- 84.6- 77.5---
2024-07-20 10:30 amSSW 2.9-----30.12- 85.8- 77.2---
2024-07-20 10:15 am W 5.1-----30.12- 87.1- 77.7---
2024-07-20 10:00 amSSW 1.9-----30.12+0.03 82.9- 76.6---
2024-07-20 09:45 amWSW 1.9-----30.15- 82.8- 76.5---
2024-07-20 09:30 amSSW 1.9-----30.15- 82.9- 76.6---
2024-07-20 09:15 am S 1.0-----30.15- 83.5- 77.2---
2024-07-20 09:00 am SW 1.0-----30.09+0.00 84.4- 78.4---
2024-07-20 08:45 am S 1.9-----30.12- 85.1- 78.8---
2024-07-20 08:30 amSSW 5.1-----30.12- 83.5- 77.2---
2024-07-20 08:15 amSSW 2.9-----30.12- 82.8- 76.5---
2024-07-20 08:00 am S 1.0-----30.12+0.03 82.6- 77.7---
2024-07-20 07:45 am S 1.0-----30.12- 83.1- 77.9---
2024-07-20 07:30 amSSE 1.0-----30.09- 83.8- 77.9---
2024-07-20 07:15 am S 1.0-----30.09- 84.2- 77.9---
2024-07-20 07:00 amSSE 1.0-----30.09+0.00 80.4- 76.6---